Location: Guferjoch
(46.7462°N, 8.4506°E)
Time: 23:49:36
(UTC+00:00)

Resurs 1-4 Rocket - Pass Details

Date: 14 July 2020
Orbit: 799 x 814 km, 98.6° (Epoch: 14 August)

Event Time Altitude Azimuth Distance (km) Brightness Sun altitude
Rises 01:21:42 0° 12° (NNE) 3,349 6.8 -17.3°
Reaches altitude 10° 01:24:04 10° 11° (N) 2,412 5.8 -17.1°
Maximum altitude 01:29:23 76° 287° (WNW) 841 2.1 -16.7°
Enters shadow 01:32:22 27° 206° (SSW) 1,516 2.9 -16.4°
